User: anonymous   Login
Location: Balaclava NSW 2575, Australia
(34.4510°S, 150.4953°E)
Time: 04:45:20
(UTC+10:00)
Language:

Tiros 1 - Orbit

View from above orbital plane
View from above orbital plane
View from above satellite
View from above satellite

Ground track
Ground track

The orbit data is extracted from the following two-line orbital elements,

1 00029U 60002B   21169.55931208 -.00000105  00000-0  15404-4 0  9996
2 00029  48.3808  20.7568 0024101 357.8487   2.2317 14.74434453272568
Epoch (UTC): 18 June 2021 13:25:24
Eccentricity: 0.0024101
inclination: 48.3808°
perigee height: 630 km
apogee height: 664 km
right ascension of ascending node: 20.7568°
argument of perigee: 357.8487°
revolutions per day: 14.74434453
mean anomaly at epoch: 2.2317°
orbit number at epoch: 27256

The dashed part of the orbit path shows where the satellite is in the earth's shadow,  

DLR